User: anonymous
Location: Stonelick Lake State Park
(39.2170°N, 84.0850°W)
Time: 22:13:40
(UTC-04:00)
Language:

Abrixas rocket - Orbit

View from above orbital plane
View from above orbital plane
View from above satellite
View from above satellite

Ground track
Ground track

The orbit data is extracted from the following two-line orbital elements,

1 25723U 99022C   14292.36927174  .00021603  00000-0  67170-3 0  7802
2 25723 048.4227 241.2425 0016547 087.3270 051.7477 15.33040518856198
Epoch (UTC): 19 October 2014 08:51:45
Eccentricity: 0.0016547
inclination: 48.4227°
perigee height: 455 km
apogee height: 478 km
right ascension of ascending node: 241.2425°
argument of perigee: 87.3270°
revolutions per day: 15.33040518
mean anomaly at epoch: 51.7477°
orbit number at epoch: 85619

The dashed part of the orbit path shows where the satellite is in the earth's shadow,  

DLR